Wind_Speed
32 30 30 29 26 25 24 23 23 21 22 23 22 22 21 21 20 19 20 20 21 21 21 22 24 25 27 29 31 34 35 33 31 31 33 34 35 36 40 46 44 41 39
35 31 31 30 29 28 27 26 25 24 24 25 25 24 23 23 22 22 23 23 24 23 23 24 24 25 28 31 32 34 35 32 32 31 35 36 36 40 44 50 47 43 40
37 33 31 30 29 30 30 29 28 27 26 27 27 26 25 25 25 25 26 25 25 26 26 27 28 28 28 29 31 31 33 34 34 38 39 39 42 44 50 54 46 41 40
37 35 33 31 30 31 32 31 31 30 30 29 30 29 26 26 27 26 27 27 26 28 29 30 28 28 27 29 31 34 34 36 38 41 43 44 46 49 55 52 47 43 41
36 36 34 33 32 32 33 33 32 32 33 32 32 31 29 26 27 27 27 26 25 28 29 30 28 27 27 29 32 35 36 38 40 43 46 49 51 55 58 55 48 49 47
39 37 35 35 33 32 32 33 33 34 35 34 34 34 30 28 27 27 26 26 27 30 30 28 29 28 29 32 33 36 38 40 43 45 49 54 57 61 59 56 50 52 52
43 40 37 37 36 34 32 34 34 35 35 36 36 35 32 30 29 28 28 29 30 31 30 29 29 30 32 33 35 38 41 44 48 50 54 56 61 60 64 57 51 55 53
45 42 40 40 37 37 35 34 36 35 36 36 35 35 33 31 29 29 30 30 31 33 32 32 32 34 34 35 38 41 45 47 51 54 58 59 63 65 68 58 55 57 54
46 44 42 41 39 38 38 37 37 36 36 37 36 36 34 33 31 31 33 33 34 37 35 35 37 38 39 40 42 45 49 51 55 57 59 61 65 69 65 60 59 58 54
49 47 45 43 42 41 42 40 40 39 36 37 36 36 37 36 34 33 34 35 36 37 39 38 40 40 41 43 45 48 50 53 56 58 62 63 67 63 58 59 59 55 53
53 49 47 46 48 45 44 42 41 39 36 38 38 37 39 36 38 36 37 38 38 39 40 42 41 41 43 45 47 50 53 52 59 62 65 67 65 58 59 60 60 53 50
54 52 50 50 50 47 47 43 42 42 39 39 38 39 40 39 39 38 38 39 40 40 39 41 41 44 45 47 49 51 54 56 62 65 67 70 61 62 61 60 57 53 49
58 54 53 52 50 50 51 46 45 45 43 43 42 41 40 41 42 41 40 39 39 39 40 42 43 47 47 48 51 51 55 58 64 68 72 70 66 66 63 58 53 51 51
60 55 54 54 52 53 51 48 47 45 44 45 44 45 45 46 45 42 42 40 42 42 43 45 47 49 50 51 52 55 58 63 66 71 75 69 69 66 65 62 55 50 47
60 57 57 54 54 52 51 50 49 47 47 47 47 48 48 48 45 42 43 43 44 45 44 45 48 52 52 54 55 59 60 63 69 75 72 70 69 68 68 65 62 55 52
61 58 58 56 56 54 53 51 51 49 49 49 48 47 47 47 45 44 46 44 44 46 47 46 49 52 54 57 57 61 62 66 73 76 69 69 70 70 69 70 67 63 57
61 58 57 57 58 57 54 53 53 51 51 50 49 47 47 45 46 46 46 44 48 47 46 47 51 54 56 59 61 58 63 70 75 77 70 71 72 72 72 71 69 66 62
61 58 58 59 59 58 56 55 55 53 53 53 51 52 51 52 48 49 49 50 49 46 47 50 52 57 57 59 60 60 70 73 73 75 72 73 74 74 75 73 72 68 65
59 58 58 58 59 59 58 57 56 55 53 52 53 53 51 52 50 49 49 51 50 48 49 51 56 61 61 60 63 71 73 75 77 73 74 76 77 79 79 78 74 71 68
60 60 57 58 56 57 57 57 57 55 53 53 54 55 54 52 54 51 51 50 50 55 48 53 61 63 63 64 69 74 75 77 74 74 76 79 80 82 82 81 76 72 71
64 59 60 58 56 54 54 55 56 56 56 56 57 57 57 57 54 54 51 52 56 52 48 60 66 67 68 70 72 76 79 78 75 76 79 82 83 85 82 80 78 74 73
67 58 60 58 57 52 52 54 55 56 57 58 57 58 58 59 57 58 58 57 55 51 55 62 68 70 73 75 78 82 83 75 77 80 83 86 87 88 83 77 77 72 72
72 68 61 53 54 52 51 52 51 51 54 55 56 56 55 58 58 59 61 65 65 66 65 69 71 74 77 79 83 87 79 78 81 85 87 90 92 91 86 80 76 67 65
74 71 64 59 59 55 53 52 51 51 53 54 54 54 55 56 59 61 64 63 64 69 73 75 77 79 82 84 85 82 81 83 85 88 92 94 95 92 87 85 71 62 56
73 69 63 61 62 60 59 57 55 54 54 54 54 54 55 56 60 60 64 67 71 74 76 79 82 85 86 86 84 85 85 88 89 92 96 97 95 91 85 71 61 58 51
70 66 63 64 64 63 63 60 56 56 57 57 58 59 61 61 66 69 72 73 76 78 79 78 78 79 79 82 85 87 90 92 94 95 98 96 92 82 70 63 59 57 53
Wind_Direction
247 250 253 255 256 257 260 267 271 271 274 274 277 281 282 285 289 293 293 295 297 302 302 298 293 294 295 296 300 304 306 312 310 309 310 313 310 310 313 315 311 303 292
244 244 247 249 253 254 257 262 267 271 274 277 279 281 284 286 290 293 296 298 301 304 305 304 301 298 295 296 297 302 307 306 308 306 309 309 307 307 310 314 308 300 292
242 243 243 246 249 253 258 260 265 269 273 278 280 282 279 283 287 292 296 298 298 300 302 305 301 300 297 298 302 302 302 304 305 308 306 308 308 307 312 312 305 298 291
240 239 241 243 248 251 257 260 264 269 272 277 279 283 284 281 286 289 293 296 298 301 300 305 305 305 301 296 297 296 297 301 304 306 306 307 308 309 311 311 305 298 290
236 237 238 241 246 250 255 260 264 269 271 276 279 281 284 287 286 290 296 298 304 306 306 303 303 301 299 297 295 296 299 303 306 307 309 309 309 311 314 313 304 304 294
237 235 236 241 245 249 255 259 264 268 272 275 278 282 285 288 287 293 298 297 303 310 307 302 301 297 298 299 299 301 304 305 306 307 313 311 312 314 318 314 305 303 295
239 235 237 241 243 248 251 257 262 269 273 276 277 280 286 287 288 295 299 300 303 307 306 300 298 297 301 303 304 305 305 304 307 311 313 311 313 316 318 314 303 307 295
242 241 239 242 244 249 250 256 262 269 274 274 278 280 282 287 288 293 295 297 300 303 303 300 298 299 303 305 306 304 304 307 311 312 313 315 316 317 320 315 307 307 297
242 242 243 244 245 247 250 255 261 265 269 273 277 281 283 285 287 290 292 294 297 298 301 300 301 302 304 304 307 306 307 309 311 314 317 318 320 320 317 312 311 309 301
243 242 245 246 249 250 251 252 258 261 266 270 275 279 280 282 286 288 291 294 296 297 300 301 300 303 303 307 307 308 310 311 313 317 317 318 319 317 315 312 311 310 305
241 245 247 249 252 253 255 255 258 262 269 270 273 275 276 281 284 286 291 294 294 297 299 300 300 302 303 306 307 309 311 314 318 318 317 320 319 318 317 317 317 313 313
236 241 245 248 251 253 256 256 258 261 266 267 271 275 277 281 282 285 290 293 294 296 295 302 301 302 304 305 309 309 316 317 318 320 317 321 319 321 320 321 322 321 320
234 237 243 246 250 252 254 257 259 261 267 268 268 272 275 277 282 285 289 293 293 293 295 298 301 303 305 306 308 314 316 319 319 319 319 320 322 322 322 324 326 326 325
237 237 241 244 248 250 253 256 259 262 266 270 273 274 277 279 284 287 288 291 288 290 294 295 298 302 304 304 308 315 316 316 318 319 320 319 322 322 323 326 327 327 328
236 236 239 243 246 248 252 255 259 261 264 268 272 276 278 279 283 286 288 286 287 289 291 293 296 299 303 303 306 312 315 315 317 317 319 320 322 323 325 326 327 326 328
234 235 239 242 246 248 251 255 258 262 264 267 271 276 279 281 284 286 288 286 288 286 291 294 295 297 299 301 306 309 311 312 315 317 316 318 320 323 326 325 326 325 324
235 235 240 243 247 248 251 255 259 262 263 267 269 274 278 283 285 286 288 286 290 287 291 291 294 294 298 300 304 308 311 313 314 314 314 316 318 321 323 323 322 321 321
235 235 239 243 247 249 252 255 259 262 264 267 269 272 276 280 284 285 286 286 288 287 290 290 292 294 300 302 307 307 309 311 312 313 312 314 316 319 320 320 319 317 316
234 236 239 243 246 249 252 255 259 261 265 270 272 275 279 281 284 284 280 284 285 286 289 292 288 290 298 301 303 305 307 308 310 309 312 313 315 317 318 317 315 313 310
233 237 239 244 246 248 252 255 257 260 264 267 272 275 279 281 282 281 282 283 285 287 289 288 286 293 295 298 302 304 304 306 307 308 310 311 314 315 315 314 312 310 306
231 235 238 242 247 249 253 256 258 261 263 266 269 273 277 280 282 282 283 281 283 288 292 284 288 289 293 297 300 301 303 304 305 307 308 311 313 313 314 313 311 310 305
230 231 237 242 247 251 256 259 261 262 265 267 270 273 276 279 281 281 283 282 287 288 285 283 284 287 291 296 297 299 302 302 303 305 307 309 311 312 312 310 309 310 307
231 233 237 241 249 252 255 259 262 265 267 268 270 271 274 277 278 277 279 283 284 287 285 285 286 287 291 294 296 298 299 300 302 304 306 308 310 311 310 310 306 309 307
230 234 238 242 249 252 255 258 263 265 268 269 272 273 275 277 281 284 286 284 284 283 284 288 289 291 292 292 295 297 298 299 301 304 306 307 308 310 310 307 304 304 304
232 233 237 243 248 252 255 259 263 266 270 273 273 273 272 276 276 277 278 280 282 286 288 289 289 290 292 292 294 295 297 298 301 304 304 306 310 309 310 307 298 295 298
231 231 236 242 247 251 254 258 264 268 269 271 273 272 271 272 275 276 277 279 282 283 286 289 290 291 292 293 293 294 297 299 301 303 305 305 305 306 306 308 295 290 292
Height
10872 10873 10875 10876 10878 10878 10878 10878 10879 10880 10880 10879 10879 10879 10879 10878 10877 10877 10876 10875 10875 10874 10873 10872 10871 10870 10869 10867 10866 10864 10862 10861 10858 10857 10855 10853 10851 10849 10847 10843 10839 10835 10832
10867 10868 10869 10871 10873 10874 10874 10874 10874 10875 10875 10876 10876 10875 10875 10874 10874 10873 10872 10871 10871 10870 10869 10868 10867 10866 10865 10863 10861 10860 10858 10856 10854 10853 10852 10849 10847 10843 10839 10835 10830 10826 10822
10862 10863 10865 10866 10868 10869 10869 10869 10870 10870 10870 10871 10871 10871 10871 10870 10870 10869 10868 10868 10867 10865 10864 10863 10862 10861 10860 10859 10857 10855 10852 10850 10849 10847 10844 10843 10840 10836 10832 10827 10822 10817 10814
10857 10859 10860 10862 10863 10864 10864 10865 10865 10865 10865 10866 10865 10866 10866 10866 10866 10865 10864 10863 10862 10860 10859 10858 10857 10855 10854 10853 10851 10848 10847 10845 10843 10840 10838 10835 10833 10829 10824 10818 10812 10809 10805
10851 10853 10855 10857 10858 10858 10859 10860 10860 10861 10861 10861 10860 10861 10861 10862 10861 10860 10859 10859 10858 10856 10855 10853 10851 10850 10849 10847 10844 10842 10840 10839 10837 10834 10831 10827 10824 10820 10814 10808 10804 10799 10795
10844 10847 10849 10851 10853 10854 10855 10856 10855 10856 10856 10856 10856 10856 10856 10857 10856 10856 10855 10854 10853 10851 10849 10847 10846 10844 10843 10841 10838 10836 10834 10831 10830 10828 10824 10820 10815 10810 10805 10798 10792 10788 10784
10838 10841 10843 10845 10847 10848 10849 10850 10851 10851 10851 10851 10850 10851 10851 10851 10851 10851 10850 10849 10848 10846 10844 10842 10840 10838 10837 10834 10832 10829 10827 10825 10822 10820 10816 10812 10807 10800 10794 10788 10782 10776 10771
10831 10835 10837 10839 10841 10843 10845 10846 10846 10847 10846 10846 10846 10845 10846 10846 10847 10846 10845 10844 10843 10841 10838 10836 10834 10833 10831 10828 10825 10822 10820 10818 10815 10812 10807 10804 10798 10790 10782 10775 10770 10765 10760
10824 10828 10831 10833 10835 10837 10840 10840 10841 10841 10841 10841 10841 10840 10841 10841 10841 10841 10840 10839 10837 10836 10833 10831 10829 10826 10824 10822 10820 10815 10812 10810 10806 10802 10799 10794 10788 10781 10772 10764 10758 10751 10745
10815 10820 10824 10827 10829 10831 10832 10833 10834 10835 10836 10836 10835 10835 10835 10835 10835 10835 10834 10833 10831 10829 10827 10824 10822 10820 10818 10815 10813 10808 10805 10802 10798 10793 10790 10786 10780 10773 10764 10755 10748 10739 10732
10808 10813 10817 10820 10822 10825 10827 10828 10828 10830 10830 10830 10830 10829 10828 10829 10829 10828 10828 10827 10824 10822 10819 10817 10815 10813 10811 10808 10806 10801 10797 10793 10787 10784 10779 10776 10769 10763 10754 10744 10736 10727 10721
10802 10806 10810 10813 10816 10819 10820 10822 10822 10823 10823 10824 10824 10823 10823 10823 10822 10822 10821 10820 10817 10815 10812 10810 10808 10806 10803 10800 10797 10793 10788 10784 10779 10774 10769 10764 10758 10751 10743 10734 10724 10715 10709
10793 10799 10802 10806 10810 10812 10813 10815 10815 10816 10816 10817 10818 10817 10817 10816 10816 10815 10815 10812 10810 10808 10806 10804 10801 10798 10796 10792 10789 10784 10781 10775 10770 10765 10758 10753 10747 10738 10732 10725 10717 10708 10699
10787 10793 10795 10798 10802 10804 10807 10808 10809 10809 10810 10810 10810 10810 10810 10809 10809 10808 10807 10805 10803 10800 10799 10797 10794 10791 10788 10785 10782 10777 10772 10767 10761 10755 10748 10742 10736 10729 10721 10715 10709 10703 10696
10780 10786 10787 10790 10794 10797 10799 10801 10801 10802 10803 10803 10803 10803 10803 10802 10802 10801 10799 10797 10796 10794 10791 10789 10786 10783 10779 10777 10773 10768 10762 10758 10752 10746 10738 10732 10725 10719 10711 10705 10700 10694 10688
10770 10777 10779 10782 10784 10788 10791 10793 10794 10796 10796 10796 10796 10796 10795 10794 10794 10792 10791 10789 10787 10785 10783 10781 10778 10774 10771 10768 10764 10760 10755 10748 10742 10737 10732 10724 10717 10710 10703 10696 10691 10686 10681
10763 10768 10771 10773 10775 10780 10783 10785 10786 10788 10788 10788 10787 10787 10787 10786 10785 10783 10781 10780 10778 10775 10773 10771 10769 10766 10763 10759 10755 10750 10745 10739 10732 10726 10722 10717 10709 10702 10696 10689 10683 10678 10673
10753 10758 10762 10763 10766 10771 10774 10776 10778 10779 10779 10779 10779 10779 10778 10777 10775 10774 10772 10770 10768 10765 10763 10762 10759 10756 10752 10748 10744 10740 10735 10729 10723 10716 10711 10706 10700 10694 10688 10681 10675 10670 10665
10745 10750 10753 10755 10757 10761 10765 10768 10769 10770 10771 10770 10770 10770 10769 10768 10766 10765 10763 10760 10758 10755 10753 10751 10750 10746 10742 10737 10734 10730 10726 10720 10713 10706 10701 10695 10689 10682 10677 10671 10665 10659 10654
10737 10741 10744 10746 10749 10753 10757 10759 10761 10762 10762 10762 10761 10761 10759 10758 10757 10755 10752 10750 10748 10745 10743 10741 10738 10734 10731 10727 10723 10719 10715 10709 10703 10696 10689 10684 10679 10672 10665 10659 10653 10648 10641
10726 10730 10733 10738 10741 10745 10749 10751 10752 10753 10753 10753 10752 10751 10749 10747 10746 10744 10742 10741 10738 10735 10733 10731 10726 10721 10718 10715 10711 10706 10701 10696 10691 10684 10677 10670 10665 10660 10654 10645 10638 10632 10626
10714 10722 10724 10730 10735 10739 10742 10743 10744 10744 10743 10743 10742 10740 10739 10737 10735 10734 10733 10730 10727 10724 10722 10718 10714 10710 10706 10703 10698 10693 10688 10683 10677 10671 10663 10656 10649 10644 10639 10632 10624 10618 10609
10706 10712 10718 10726 10727 10731 10734 10734 10734 10733 10733 10732 10731 10731 10730 10728 10727 10725 10722 10719 10715 10712 10708 10705 10701 10697 10694 10688 10683 10678 10673 10667 10662 10655 10650 10641 10633 10626 10621 10617 10609 10602 10595
10696 10705 10711 10718 10720 10722 10723 10724 10723 10723 10723 10722 10721 10720 10719 10717 10715 10711 10708 10704 10701 10698 10695 10692 10688 10684 10679 10674 10668 10663 10659 10654 10648 10642 10633 10627 10618 10610 10602 10598 10593 10588 10583
10693 10698 10705 10708 10710 10713 10713 10713 10713 10714 10713 10711 10710 10708 10706 10705 10702 10698 10694 10691 10688 10685 10682 10677 10673 10669 10663 10658 10653 10648 10642 10637 10632 10626 10616 10610 10603 10594 10586 10580 10577 10576 10572
10684 10690 10695 10698 10699 10701 10702 10703 10704 10703 10700 10699 10696 10693 10691 10689 10686 10683 10681 10679 10675 10671 10667 10662 10657 10652 10647 10642 10636 10630 10624 10619 10613 10608 10601 10591 10585 10580 10575 10568 10563 10563 10560